Location: Great Snoring
(52.8667°N, 0.8833°E)
Time: 21:22:08
(UTC+00:00)

Meteor 2-2 Rocket - Pass Details

Date: 19 May 2025
Orbit: 852 x 927 km, 81.3° (Epoch: 18 June)

Event Time Altitude Azimuth Distance (km) Brightness Sun altitude
Exits shadow 20:57:30 -1° 181° (S) 3,579 7.0 -7.9°
Rises 20:57:41 0° 181° (S) 3,510 7.0 -7.9°
Reaches altitude 10° 21:00:08 10° 179° (S) 2,584 6.3 -8.1°
Maximum altitude 21:05:59 67° 98° (E) 993 4.4 -8.7°
Drops below altitude 10° 21:11:57 10° 17° (NNE) 2,638 7.3 -9.2°
Sets 21:14:28 0° 15° (NNE) 3,589 8.0 -9.5°
